Weather History for KRIV - January, 2014

Change the Weather History Date:

Tuesday, January 28, 2014

  Actual Average Record
Temperature  
Mean Temperature 56 °F -  
Max Temperature 74 °F 63 °F 77 °F (2003)
Min Temperature 37 °F 39 °F 27 °F (2009)
Degree Days  
Heating Degree Days 10    
Growing Degree Days 6 (Base 50)    
Moisture  
Dew Point 39 °F    
Average Humidity 62    
Maximum Humidity 95    
Minimum Humidity 24    
Precipitation  
Precipitation 0.00 in - - ()
Sea Level Pressure  
Sea Level Pressure 30.08 in    
Wind  
Wind Speed 2 mph (WNW)    
Max Wind Speed 10 mph    
Max Gust Speed -    
Visibility 9 miles    
Events      
Averages and records for this station are not official NWS values.
T = Trace of Precipitation, MM = Missing Value Source: NWS Daily Summary

Daily Weather History Graph

Daily Weather History Graph

Search for Another Location

Airport or City:

Trip Planner

Search our weather history database for the weather conditions in past years. The results will help you decide how hot, cold, wet, or windy it might be!

Date:

Astronomy

Jan. 28, 2014 Rise Set
Actual Time 6:48 AM PST 5:15 PM PST
Civil Twilight 6:21 AM PST 5:42 PM PST
Nautical Twilight 5:51 AM PST 6:12 PM PST
Astronomical Twilight 5:22 AM PST 6:41 PM PST
Moon 4:32 AM PST (1/28) 3:12 PM PST (1/28)
Length of Visible Light 11h 20m
Length of Day
10h 27m
Waning Crescent, 6% of the Moon is Illuminated
Jan 28
Waning Crescent
Jan 30
New
Feb 6
First Quarter
Feb 14
Full
Feb 22
Last Quarter

Hourly Weather History & Observations

Time (PST) Temp. Windchill Dew Point Humidity Pressure Visibility Wind Dir Wind Speed Gust Speed Precip Events Conditions
12:58 AM 41.0 °F - 37.8 °F 88% 30.08 in 10.0 mi Calm Calm - N/A   Clear
1:58 AM 42.6 °F - 41.0 °F 94% 30.07 in 6.0 mi Calm Calm - N/A   Clear
2:58 AM 41.5 °F - 38.8 °F 90% 30.08 in 8.0 mi Calm Calm - N/A   Clear
3:58 AM 39.9 °F 37.8 °F 37.0 °F 89% 30.08 in 9.0 mi North 3.5 mph - N/A   Clear
4:58 AM 39.9 °F - 38.5 °F 95% 30.08 in 6.0 mi SW 2.3 mph - N/A   Clear
5:58 AM 38.1 °F - 36.5 °F 94% 30.09 in 6.0 mi North 2.3 mph - N/A   Clear
6:58 AM 37.9 °F - 35.1 °F 89% 30.09 in 7.0 mi Calm Calm - N/A   Mostly Cloudy
7:58 AM 45.0 °F 43.5 °F 41.2 °F 87% 30.11 in - South 3.5 mph - N/A   Mostly Cloudy
8:58 AM 52.5 °F - 43.0 °F 70% 30.12 in 10.0 mi South 3.5 mph - N/A   Mostly Cloudy
9:58 AM 60.3 °F - 39.6 °F 46% 30.13 in 10.0 mi South 3.5 mph - N/A   Overcast
10:58 AM 65.7 °F - 37.6 °F 36% 30.12 in 10.0 mi Calm Calm - N/A   Clear
11:58 AM 70.7 °F - 32.2 °F 24% 30.08 in 10.0 mi North 2.3 mph - N/A   Clear
12:58 PM 73.6 °F - 39.0 °F 29% 30.04 in 10.0 mi West 4.6 mph - N/A   Clear
1:58 PM 74.1 °F - 36.7 °F 26% 30.03 in 10.0 mi NNW 6.9 mph - N/A   Clear
2:58 PM 73.8 °F - 36.0 °F 25% 30.02 in 10.0 mi NW 10.4 mph - N/A   Clear
3:58 PM 72.7 °F - 36.7 °F 27% 30.04 in 10.0 mi WNW 10.4 mph - N/A   Clear
4:58 PM 69.1 °F - 39.2 °F 34% 30.06 in 10.0 mi WNW 5.8 mph - N/A   Partly Cloudy
5:58 PM 65.1 °F - 45.5 °F 49% 30.07 in 10.0 mi NW 3.5 mph - N/A   Mostly Cloudy
6:58 PM 59.0 °F - 44.4 °F 58% 30.08 in 10.0 mi WNW 3.5 mph - N/A   Mostly Cloudy
7:58 PM 55.8 °F - 42.6 °F 61% 30.09 in 10.0 mi Calm Calm - N/A   Clear
8:58 PM 51.3 °F - 39.7 °F 65% 30.10 in 10.0 mi Variable 3.5 mph - N/A   Clear
9:58 PM 52.5 °F - 43.2 °F 70% 30.10 in 10.0 mi Calm Calm - N/A   Clear
10:58 PM 47.7 °F - 39.6 °F 73% 30.10 in 9.0 mi Calm Calm - N/A   Clear
11:58 PM 45.9 °F - 37.6 °F 73% 30.10 in 9.0 mi Calm Calm - N/A   Clear